Regional Weather Roundup
Issued by NWS

Home | Current Version | Previous Version | Text Only | Print | Product List | Glossary On
Versions: 1 2 3 4 5 6 7 8 9 10 11 12 13 14 15 16 17 18 19 20 21 22 23 24 25 26 27 28
000
ASPQ40 PGUM 261112
RWRPQ
WEATHER ROUNDUP FOR THE MARIANAS AND MICRONESIA
NATIONAL WEATHER SERVICE TIYAN GU
900 PM CHST SUN FEB 26 2017

GUZ001>004-261200-
MARIANA ISLANDS-

CITY           SKY/WX    TMP DP  RH WIND       PRES   REMARKS
GUAM AIRPORT   CLEAR     81  75  83 NE13      29.92R
ANDERSEN AFB   CLEAR     79  73  83 E15       29.93R
ROTA AIRPORT   NOT AVBL
TINIAN AP      NOT AVBL
SAIPAN AP      MOCLDY    79  73  83 NE18G24   29.93R

$$

PMZ161-261200-
REPUBLIC OF PALAU-

CITY           SKY/WX    TMP DP  RH WIND       PRES   REMARKS
KOROR AP       CLOUDY    81  79  94 E5        29.82R
KOROR WSO      CLOUDY    82  77  83 NE5       29.83R HX  91

$$

PMZ171>174-261200-
FEDERATED STATES OF MICRONESIA-

CITY           SKY/WX    TMP DP  RH WIND       PRES   REMARKS
YAP AIRPORT    CLOUDY    81  75  83 NE8       29.83R
CHUUK AP       MOCLDY    82  79  89 NE12      29.81R HX  93
POHNPEI AP     CLOUDY    82  77  83 E15       29.78R HX  91
POHNPEI WSO    CLOUDY    82  75  78 NE10      29.83R
KOSRAE AP      NOT AVBL

$$

PMZ181-261200-
REPUBLIC OF THE MARSHALL ISLANDS-

CITY           SKY/WX    TMP DP  RH WIND       PRES   REMARKS
KWAJALEIN AP   PTCLDY    82  73  74 E22G29    29.81R
MAJURO AP      NOT AVBL
MAJURO WSO     CLOUDY    82  75  78 NE14      29.78S

$$





USA.gov is the U.S. government's official web portal to all federal, state and local government web resources and services.